Location: Hackbridge
(51.3833°N, 0.1500°W)
Time: 14:58:25
(UTC+00:00)

Cosmos 1777 Rocket - Pass Details

Date: 13 October 2019
Orbit: 759 x 775 km, 74.0° (Epoch: 14 November)

Event Time Altitude Azimuth Distance (km) Brightness Sun altitude
Rises 19:29:31 0° 333° (NNW) 3,244 7.9 -22.0°
Reaches altitude 10° 19:31:55 10° 331° (NNW) 2,311 7.1 -22.4°
Maximum altitude 19:37:06 67° 250° (WSW) 828 4.2 -23.2°
Enters shadow 19:39:36 31° 176° (S) 1,328 5.0 -23.5°
